FW7449 Weather Reports


Display with metric or nautical units.
time (UTC)temp
F
wind
direction
speed
MPH
gust
MPH
rain 1hr
in
rain 24hr
in
rain mn
in
humidity
%
barometer
mb
20260505003047 70 200 3.0 11.0 0.00 0.00 0.00 38 1014.2
20260505001541 71 165 4.0 7.0 0.00 0.00 0.00 37 1014.1
20260505000043 71 182 2.0 9.0 0.00 0.00 0.00 37 1014.1
20260504234535 72 162 4.0 9.0 0.00 0.00 0.00 36 1014.0
20260504233049 73 165 6.0 14.0 0.00 0.00 0.00 36 1013.8
20260504231540 74 240 8.0 19.0 0.00 0.00 0.00 35 1013.9
20260504230055 74 165 5.0 12.0 0.00 0.00 0.00 36 1013.7
20260504224557 75 154 5.0 14.0 0.00 0.00 0.00 35 1013.8
20260504223042 75 180 7.0 12.0 0.00 0.00 0.00 35 1013.7
20260504221541 76 105 6.0 16.0 0.00 0.00 0.00 35 1013.7
20260504220051 76 153 5.0 16.0 0.00 0.00 0.00 33 1013.6
20260504214545 77 157 6.0 15.0 0.00 0.00 0.00 34 1013.7
20260504213045 77 217 6.0 15.0 0.00 0.00 0.00 32 1013.8
20260504211536 77 191 4.0 14.0 0.00 0.00 0.00 32 1013.7
20260504210056 77 165 6.0 13.0 0.00 0.00 0.00 32 1013.7
20260504204547 77 147 6.0 16.0 0.00 0.00 0.00 33 1013.9
20260504203044 78 148 5.0 14.0 0.00 0.00 0.00 32 1013.9
20260504201546 78 144 5.0 18.0 0.00 0.00 0.00 33 1014.2
20260504200049 78 136 8.0 16.0 0.00 0.00 0.00 33 1014.2
20260504194535 78 169 6.0 12.0 0.00 0.00 0.00 32 1014.4
20260504193044 79 182 3.0 11.0 0.00 0.00 0.00 33 1014.5
20260504191545 78 62 3.0 11.0 0.00 0.00 0.00 34 1014.6
20260504190041 79 173 1.0 8.0 0.00 0.00 0.00 32 1014.9
20260504184539 77 252 5.0 10.0 0.00 0.00 0.00 33 1015.1
20260504183041 79 153 4.0 10.0 0.00 0.00 0.00 31 1015.3
20260504181541 78 243 4.0 13.0 0.00 0.00 0.00 31 1015.6
20260504180040 78 204 2.0 9.0 0.00 0.00 0.00 32 1015.8
20260504174540 76 315 1.0 8.0 0.00 0.00 0.00 33 1015.8
20260504173041 77 157 4.0 9.0 0.00 0.00 0.00 33 1015.8
20260504171540 75 56 1.0 10.0 0.00 0.00 0.00 35 1015.9
20260504081539 45 0 0.0 0.0 0.00 0.00 0.00 82 1017.1
20260504044543 53 0 0.0 2.0 0.00 0.00 0.00 66 1017.1
20260504043107 54 196 0.0 3.0 0.00 0.00 0.00 64 1017.0
20260504041544 54 196 1.0 3.0 0.00 0.00 0.00 62 1016.8
20260504040048 54 0 0.0 0.0 0.00 0.00 0.00 61 1016.7
20260504034547 55 0 0.0 0.0 0.00 0.00 0.00 61 1016.7
20260504033040 55 0 0.0 0.0 0.00 0.00 0.00 60 1017.0
20260504031547 56 0 0.0 0.0 0.00 0.00 0.00 58 1017.0
20260504030100 57 0 0.0 0.0 0.00 0.00 0.00 57 1017.0
20260504024543 58 0 0.0 0.0 0.00 0.00 0.00 54 1017.0
20260504023042 58 0 0.0 1.0 0.00 0.00 0.00 52 1016.8
20260504021544 59 0 0.0 0.0 0.00 0.00 0.00 51 1016.6
20260504020041 59 0 0.0 3.0 0.00 0.00 0.00 51 1016.6
20260504014544 60 199 2.0 6.0 0.00 0.00 0.00 48 1016.2
20260504013050 60 197 3.0 7.0 0.00 0.00 0.00 48 1016.0
20260504011537 61 209 3.0 7.0 0.00 0.00 0.00 47 1015.9
20260504010043 61 170 2.0 6.0 0.00 0.00 0.00 46 1015.9
20260504004546 62 178 4.0 8.0 0.00 0.00 0.00 45 1015.8